Location: Allie Creek
(37.5926°N, 89.8526°W)
Time: 14:10:36
(UTC+00:00)

SL-16 R/B - Pass Details

Date: 01 May 2024
Orbit: 841 x 845 km, 71.0° (Epoch: 25 May)

Event Time Altitude Azimuth Distance (km) Brightness Sun altitude
Rises 03:05:17 0° 213° (SSW) 3,384 5.2 -23.6°
Reaches altitude 10° 03:07:45 10° 217° (SW) 2,454 4.5 -24.0°
Maximum altitude 03:13:17 56° 295° (WNW) 1,001 2.8 -24.8°
Drops below altitude 10° 03:18:51 10° 14° (NNE) 2,471 5.0 -25.5°
Sets 03:21:22 0° 18° (NNE) 3,410 5.7 -25.8°
